H1 CPF 2 NER 2024 7 30 9 212 01 glonass131 H2 1301901 9131 39155 2024 7 30 0 0 0 2024 8 2 23 45 0 900 1 1 0 0 0 1 H9 10 0 60521 0.00000 0 -14846908.004 -2203934.481 20685234.693 10 0 60521 900.00000 0 -12617905.841 -3581817.540 21931625.600 10 0 60521 1800.00000 0 -10395967.458 -5198364.612 22754409.231 10 0 60521 2700.00000 0 -8243870.883 -7024174.012 23137530.076 10 0 60521 3600.00000 0 -6218764.851 -9018774.043 23073370.123 10 0 60521 4500.00000 0 -4369962.690 -11132101.622 22562909.726 10 0 60521 5400.00000 0 -2737070.964 -13306394.974 21615728.922 10 0 60521 6300.00000 0 -1348529.913 -15478425.034 20249847.596 10 0 60521 7200.00000 0 -220626.421 -17581975.743 18491405.545 10 0 60521 8100.00000 0 642978.703 -19550472.543 16374186.137 10 0 60521 9000.00000 0 1251188.195 -21319651.283 13938990.171 10 0 60521 9900.00000 0 1624871.623 -22830156.890 11232869.540 10 0 60521 10800.00000 0 1795757.939 -24029962.976 8308233.288 10 0 60521 11700.00000 0 1804862.422 -24876509.865 5221841.713 10 0 60521 12600.00000 0 1700513.411 -25338469.317 2033707.023 10 0 60521 13500.00000 0 1536061.852 -25397059.264 -1194078.322 10 0 60521 14400.00000 0 1367371.091 -25046850.452 -4398562.252 10 0 60521 15300.00000 0 1250194.587 -24296028.278 -7517177.630 10 0 60521 16200.00000 0 1237554.811 -23166096.527 -10488984.573 10 0 60521 17100.00000 0 1377237.162 -21691033.848 -13255884.060 10 0 60521 18000.00000 0 1709508.180 -19915937.712 -15763776.677 10 0 60521 18900.00000 0 2265157.841 -17895213.068 -17963641.500 10 0 60521 19800.00000 0 3063951.640 -15690382.770 -19812511.971 10 0 60521 20700.00000 0 4113560.319 -13367613.351 -21274328.024 10 0 60521 21600.00000 0 5409014.104 -10995061.900 -22320646.741 10 0 60521 22500.00000 0 6932705.420 -8640157.195 -22931197.219 10 0 60521 23400.00000 0 8654940.117 -6366930.709 -23094268.921 10 0 60521 24300.00000 0 10535013.513 -4233510.255 -22806926.675 10 0 60521 25200.00000 0 12522765.023 -2289881.463 -22075049.254 10 0 60521 26100.00000 0 14560544.757 -576010.143 -20913192.327 10 0 60521 27000.00000 0 16585508.220 879597.448 -19344280.143 10 0 60521 27900.00000 0 18532141.655 2060838.571 -17399133.786 10 0 60521 28800.00000 0 20334911.294 2964425.702 -15115847.002 10 0 60521 29700.00000 0 21930925.131 3599752.229 -12539023.413 10 0 60521 30600.00000 0 23262495.897 3988221.486 -9718891.458 10 0 60521 31500.00000 0 24279498.663 4162070.850 -6710315.509 10 0 60521 32400.00000 0 24941425.682 4162743.554 -3571723.263 10 0 60521 33300.00000 0 25219054.210 4038879.332 -363970.762 10 0 60521 34200.00000 0 25095659.560 3844010.307 2850832.787 10 0 60521 35100.00000 0 24567724.782 3634060.212 6010517.935 10 0 60521 36000.00000 0 23645119.298 3464752.451 9054043.292 10 0 60521 36900.00000 0 22350740.724 3389035.661 11922657.329 10 0 60521 37800.00000 0 20719635.950 3454634.042 14561012.732 10 0 60521 38700.00000 0 18797638.614 3701824.165 16918213.566 10 0 60521 39600.00000 0 16639579.447 4161530.234 18948776.966 10 0 60521 40500.00000 0 14307142.957 4853816.625 20613492.755 10 0 60521 41400.00000 0 11866457.807 5786840.240 21880166.288 10 0 60521 42300.00000 0 9385518.803 6956306.567 22724231.690 10 0 60521 43200.00000 0 6931544.952 8345453.079 23129224.781 10 0 60521 44100.00000 0 4568380.599 9925562.361 23087107.070 10 0 60521 45000.00000 0 2354045.146 11656985.973 22598434.421 10 0 60521 45900.00000 0 338531.068 13490639.346 21672366.272 10 0 60521 46800.00000 0 -1438059.605 15369908.646 20326513.736 10 0 60521 47700.00000 0 -2946963.435 17232893.303 18586627.474 10 0 60521 48600.00000 0 -4171727.865 19014893.491 16486128.921 10 0 60521 49500.00000 0 -5108666.290 20651040.905 14065491.298 10 0 60521 50400.00000 0 -5766775.540 22078964.115 11371479.886 10 0 60521 51300.00000 0 -6167117.715 23241377.199 8456263.985 10 0 60521 52200.00000 0 -6341690.822 24088482.363 5376416.053 10 0 60521 53100.00000 0 -6331834.559 24580083.918 2191816.424 10 0 60521 54000.00000 0 -6186237.878 24687322.306 -1035515.405 10 0 60521 54900.00000 0 -5958632.622 24393952.268 -4242639.651 10 0 60521 55800.00000 0 -5705271.752 23697108.315 -7366940.292 10 0 60521 56700.00000 0 -5482300.705 22607522.462 -10347368.155 10 0 60521 57600.00000 0 -5343135.619 21149182.792 -13125656.603 10 0 60521 58500.00000 0 -5335962.399 19358445.768 -15647483.572 10 0 60521 59400.00000 0 -5501465.555 17282639.019 -17863554.955 10 0 60521 60300.00000 0 -5870885.873 14978213.624 -19730586.018 10 0 60521 61200.00000 0 -6464491.575 12508524.527 -21212160.020 10 0 60521 62100.00000 0 -7290529.469 9941333.736 -22279446.128 10 0 60521 63000.00000 0 -8344701.526 7346142.713 -22911762.145 10 0 60521 63900.00000 0 -9610189.287 4791467.344 -23096971.153 10 0 60521 64800.00000 0 -11058224.713 2342170.791 -22831705.023 10 0 60521 65700.00000 0 -12649182.486 56966.338 -22121411.606 10 0 60521 66600.00000 0 -14334146.399 -2013805.513 -20980226.155 10 0 60521 67500.00000 0 -16056882.491 -3830033.894 -19430671.238 10 0 60521 68400.00000 0 -17756134.472 -5363252.738 -17503192.791 10 0 60521 69300.00000 0 -19368143.811 -6597557.744 -15235543.160 10 0 60521 70200.00000 0 -20829287.849 -7529990.125 -12672024.853 10 0 60521 71100.00000 0 -22078724.901 -8170374.727 -9862611.156 10 0 60521 72000.00000 0 -23060935.635 -8540622.987 -6861962.001 10 0 60521 72900.00000 0 -23728054.973 -8673533.560 -3728355.084 10 0 60521 73800.00000 0 -24041898.056 -8611144.026 -522553.527 10 0 60521 74700.00000 0 -23975597.053 -8402705.375 2693367.795 10 0 60521 75600.00000 0 -23514782.124 -8102366.064 5857214.777 10 0 60521 76500.00000 0 -22658258.956 -7766663.835 8907863.118 10 0 60521 77400.00000 0 -21418156.160 -7451930.782 11786421.922 10 0 60521 78300.00000 0 -19819537.552 -7211720.035 14437350.865 10 0 60521 79200.00000 0 -17899496.059 -7094361.033 16809511.149 10 0 60521 80100.00000 0 -15705766.892 -7140744.584 18857131.824 10 0 60521 81000.00000 0 -13294916.801 -7382429.260 20540674.840 10 0 60521 81900.00000 0 -10730183.061 -7840147.370 21827584.010 10 0 60521 82800.00000 0 -8079049.746 -8522772.553 22692904.946 10 0 60521 83700.00000 0 -5410659.227 -9426792.367 23119765.174 10 0 60521 84600.00000 0 -2793163.422 -10536308.910 23099705.689 10 0 60521 85500.00000 0 -291121.970 -11823569.288 22632857.430 10 0 60522 0.00000 0 2036946.966 -13250006.107 21727958.553 10 0 60522 900.00000 0 4140764.611 -14767748.309 20402210.138 10 0 60522 1800.00000 0 5980144.906 -16321540.418 18680972.378 10 0 60522 2700.00000 0 7526430.571 -17850995.502 16597303.089 10 0 60522 3600.00000 0 8763448.478 -19293088.238 14191345.965 10 0 60522 4500.00000 0 9687944.618 -20584786.135 11509577.449 10 0 60522 5400.00000 0 10309478.794 -21665709.261 8603924.619 10 0 60522 6300.00000 0 10649781.909 -22480706.512 5530769.408 10 0 60522 7200.00000 0 10741601.392 -22982238.824 2349857.428 10 0 60522 8100.00000 0 10627082.482 -23132466.819 -876867.708 10 0 60522 9000.00000 0 10355753.321 -22904952.119 -4086481.453 10 0 60522 9900.00000 0 9982199.484 -22285897.439 -7216321.787 10 0 60522 10800.00000 0 9563527.611 -21274870.061 -10205233.044 10 0 60522 11700.00000 0 9156727.519 -19884975.389 -12994783.607 10 0 60522 12600.00000 0 8816047.056 -18142471.143 -15530431.223 10 0 60522 13500.00000 0 8590493.720 -16085837.115 -17762610.814 10 0 60522 14400.00000 0 8521571.633 -13764339.165 -19647721.403 10 0 60522 15300.00000 0 8641352.181 -11236148.192 -21148991.159 10 0 60522 16200.00000 0 8970961.899 -8566094.076 -22237202.526 10 0 60522 17100.00000 0 9519552.782 -5823150.149 -22891262.793 10 0 60522 18000.00000 0 10283798.992 -3077755.146 -23098609.004 10 0 60522 18900.00000 0 11247940.927 -399086.000 -22855440.016 10 0 60522 19800.00000 0 12384373.833 2147603.631 -22166772.306 10 0 60522 20700.00000 0 13654754.711 4503467.676 -21046319.908 10 0 60522 21600.00000 0 15011579.180 6618271.641 -19516202.582 10 0 60522 22500.00000 0 16400160.124 8452225.697 -17606489.658 10 0 60522 23400.00000 0 17760923.225 9977372.526 -15354590.328 10 0 60522 24300.00000 0 19031921.548 11178474.872 -12804503.881 10 0 60522 25200.00000 0 20151462.635 12053369.134 -10005946.027 10 0 60522 26100.00000 0 21060737.427 12612773.815 -7013369.513 10 0 60522 27000.00000 0 21706340.910 12879564.584 -3884899.019 10 0 60522 27900.00000 0 22042579.481 12887549.639 -681201.514 10 0 60522 28800.00000 0 22033469.515 12679799.640 2535685.792 10 0 60522 29700.00000 0 21654344.876 12306604.445 5703547.477 10 0 60522 30600.00000 0 20893007.687 11823143.769 8761179.568 10 0 60522 31500.00000 0 19750375.706 11286970.090 11649554.837 10 0 60522 32400.00000 0 18240600.454 10755409.182 14312942.736 10 0 60522 33300.00000 0 16390651.809 10282986.451 16699964.062 10 0 60522 34200.00000 0 14239386.411 9918985.676 18764561.898 10 0 60522 35100.00000 0 11836137.905 9705240.946 20466872.083 10 0 60522 36000.00000 0 9238886.182 9674252.871 21773978.256 10 0 60522 36900.00000 0 6512079.494 9847706.822 22660538.491 10 0 60522 37800.00000 0 3724197.188 10235454.751 23109272.559 10 0 60522 38700.00000 0 945151.139 10835003.404 23111301.012 10 0 60522 39600.00000 0 -1756369.302 11631531.420 22666329.436 10 0 60522 40500.00000 0 -4315501.542 12598436.443 21782673.554 10 0 60522 41400.00000 0 -6673657.368 13698391.841 20477123.255 10 0 60522 42300.00000 0 -8780713.858 14884871.660 18774646.148 10 0 60522 43200.00000 0 -10596857.286 16104082.911 16707933.998 10 0 60522 44100.00000 0 -12094003.144 17297226.881 14316798.149 10 0 60522 45000.00000 0 -13256732.257 18402996.688 11647423.123 10 0 60522 45900.00000 0 -14082702.491 19360207.447 8751490.524 10 0 60522 46800.00000 0 -14582517.188 20110448.702 5685188.438 10 0 60522 47700.00000 0 -14779054.193 20600646.618 2508124.451 10 0 60522 48600.00000 0 -14706282.381 20785426.177 -717836.950 10 0 60522 49500.00000 0 -14407614.765 20629171.130 -3929789.548 10 0 60522 50400.00000 0 -13933867.674 20107691.667 -7065028.246 10 0 60522 51300.00000 0 -13340912.999 19209426.103 -10062293.558 10 0 60522 52200.00000 0 -12687124.365 17936122.728 -12862991.277 10 0 60522 53100.00000 0 -12030727.484 16302970.375 -15412361.003 10 0 60522 54000.00000 0 -11427169.418 14338170.258 -17660568.351 10 0 60522 54900.00000 0 -10926620.783 12081965.940 -19563697.377 10 0 60522 55800.00000 0 -10571719.107 9585171.973 -21084622.048 10 0 60522 56700.00000 0 -10395650.838 6907263.462 -22193738.612 10 0 60522 57600.00000 0 -10420654.473 4114107.728 -22869544.018 10 0 60522 58500.00000 0 -10657008.657 1275434.422 -23099049.122 10 0 60522 59400.00000 0 -11102547.796 -1537848.680 -22878019.294 10 0 60522 60300.00000 0 -11742724.676 -4256380.944 -22211038.837 10 0 60522 61200.00000 0 -12551215.904 -6815000.761 -21111399.452 10 0 60522 62100.00000 0 -13491042.728 -9155213.476 -19600816.648 10 0 60522 63000.00000 0 -14516157.892 -11227373.252 -17708981.434 10 0 60522 63900.00000 0 -15573429.608 -12992489.503 -15472957.851 10 0 60522 64800.00000 0 -16604937.328 -14423584.927 -12936439.790 10 0 60522 65700.00000 0 -17550481.284 -15506551.442 -10148883.048 10 0 60522 66600.00000 0 -18350199.370 -16240471.685 -7164530.761 10 0 60522 67500.00000 0 -18947181.047 -16637396.178 -4041352.102 10 0 60522 68400.00000 0 -19289968.717 -16721588.980 -839915.368 10 0 60522 69300.00000 0 -19334842.333 -16528276.481 2377782.440 10 0 60522 70200.00000 0 -19047792.528 -16101954.344 5549507.157 10 0 60522 71100.00000 0 -18406100.962 -15494325.319 8613977.705 10 0 60522 72000.00000 0 -17399463.065 -14761955.380 11512033.083 10 0 60522 72900.00000 0 -16030607.420 -13963746.595 14187754.992 10 0 60522 73800.00000 0 -14315386.636 -13158332.024 16589526.163 10 0 60522 74700.00000 0 -12282336.128 -12401500.604 18671005.839 10 0 60522 75600.00000 0 -9971718.610 -11743758.291 20392005.578 10 0 60522 76500.00000 0 -7434092.757 -11228125.846 21719250.339 10 0 60522 77400.00000 0 -4728463.500 -10888263.891 22627011.758 10 0 60522 78300.00000 0 -1920088.133 -10747002.553 23097602.543 10 0 60522 79200.00000 0 921973.838 -10815336.724 23121723.098 10 0 60522 80100.00000 0 3727468.616 -11091929.233 22698653.562 10 0 60522 81000.00000 0 6427608.745 -11563143.844 21836286.886 10 0 60522 81900.00000 0 8957678.769 -12203608.490 20551000.821 10 0 60522 82800.00000 0 11259479.695 -12977287.565 18867369.369 10 0 60522 83700.00000 0 13283511.921 -13839020.983 16817716.821 10 0 60522 84600.00000 0 14990806.100 -14736468.077 14441520.448 10 0 60522 85500.00000 0 16354325.080 -15612376.967 11784670.772 10 0 60523 0.00000 0 17359877.096 -16407085.489 8898601.780 10 0 60523 900.00000 0 18006500.837 -17061149.538 5839304.453 10 0 60523 1800.00000 0 18306303.093 -17517986.666 2666245.594 10 0 60523 2700.00000 0 18283755.965 -17726423.498 -558792.630 10 0 60523 3600.00000 0 17974480.521 -17643036.078 -3772925.616 10 0 60523 4500.00000 0 17423568.192 -17234181.770 -6913408.452 10 0 60523 5400.00000 0 16683510.866 -16477633.503 -9918880.976 10 0 60523 6300.00000 0 15811828.155 -15363743.936 -12730589.334 10 0 60523 7200.00000 0 14868493.861 -13896087.337 -15293557.662 10 0 60523 8100.00000 0 13913272.755 -12091549.576 -17557684.659 10 0 60523 9000.00000 0 13003082.784 -9979860.660 -19478741.453 10 0 60523 9900.00000 0 12189496.729 -7602588.630 -21019249.484 10 0 60523 10800.00000 0 11516491.036 -5011636.963 -22149220.078 10 0 60523 11700.00000 0 11018538.437 -2267309.137 -22846740.694 10 0 60523 12600.00000 0 10719125.746 563977.434 -23098396.424 10 0 60523 13500.00000 0 10629759.263 3412231.166 -22899519.152 10 0 60523 14400.00000 0 10749498.929 6206572.403 -22254260.623 10 0 60523 15300.00000 0 11065039.259 8877952.711 -21175489.444 10 0 60523 16200.00000 0 11551331.560 11361793.586 -19684515.782 10 0 60523 17100.00000 0 12172718.786 13600434.783 -17810650.898 10 0 60523 18000.00000 0 12884532.733 15545291.243 -15590611.952 10 0 60523 18900.00000 0 13635083.957 17158630.462 -13067785.392 10 0 60523 19800.00000 0 14367958.655 18414898.660 -10291364.737 10 0 60523 20700.00000 0 15024524.316 19301543.341 -7315380.848 10 0 60523 21600.00000 0 15546537.826 19819301.244 -4197644.455 10 0 60523 22500.00000 0 15878746.044 19981942.983 -998622.044 10 0 60523 23400.00000 0 15971369.867 19815488.256 2219732.874 10 0 60523 24300.00000 0 15782368.205 19356927.204 5395170.687 10 0 60523 25200.00000 0 15279388.004 18652503.566 8466336.455 10 0 60523 26100.00000 0 14441319.796 17755632.883 11373938.477 10 0 60523 27000.00000 0 13259394.827 16724543.416 14061873.552 10 0 60523 27900.00000 0 11737778.708 15619738.254 16478288.920 10 0 60523 28800.00000 0 9893637.161 14501383.836 18576562.246 10 0 60523 29700.00000 0 7756670.795 13426732.588 20316182.731 10 0 60523 30600.00000 0 5368137.214 12447685.636 21663518.226 10 0 60523 31500.00000 0 2779399.309 11608595.643 22592455.102 10 0 60523 32400.00000 0 50057.564 10944399.947 23084899.775 10 0 60523 33300.00000 0 -2754259.137 10479160.938 23131132.797 10 0 60523 34200.00000 0 -5564355.791 10225074.189 22730008.672 10 0 60523 35100.00000 0 -8310087.786 10181986.162 21888996.844 10 0 60523 36000.00000 0 -10923026.099 10337442.755 20624061.660 10 0 60523 36900.00000 0 -13339062.924 10667268.422 18959381.692 10 0 60523 37800.00000 0 -15500851.094 11136653.829 16926911.458 10 0 60523 38700.00000 0 -17359976.577 11701708.810 14565791.400 10 0 60523 39600.00000 0 -18878773.296 12311417.642 11921614.983 10 0 60523 40500.00000 0 -20031703.518 12909916.185 9045564.748 10 0 60523 41400.00000 0 -20806244.482 13438996.027 5993432.229 10 0 60523 42300.00000 0 -21203242.098 13840730.165 2824539.547 10 0 60523 43200.00000 0 -21236714.873 14060108.490 -399416.768 10 0 60523 44100.00000 0 -20933114.612 14047569.874 -3615576.932 10 0 60523 45000.00000 0 -20330073.818 13761321.183 -6761159.241 10 0 60523 45900.00000 0 -19474692.248 13169341.952 -9774705.685 10 0 60523 46800.00000 0 -18421435.340 12250986.545 -12597305.329 10 0 60523 47700.00000 0 -17229734.467 10998112.776 -15173769.105 10 0 60523 48600.00000 0 -15961392.293 9415686.416 -17453730.693 10 0 60523 49500.00000 0 -14677905.048 7521833.809 -19392649.784 10 0 60523 50400.00000 0 -13437817.247 5347338.911 -20952696.345 10 0 60523 51300.00000 0 -12294222.671 2934605.268 -22103497.383 10 0 60523 52200.00000 0 -11292518.784 336126.619 -22822731.047 10 0 60523 53100.00000 0 -10468510.293 -2387468.973 -23096556.423 10 0 60523 54000.00000 0 -9846941.969 -5169718.454 -22919871.298 10 0 60523 54900.00000 0 -9440521.841 -7940869.169 -22296393.877 10 0 60523 55800.00000 0 -9249474.422 -10630562.831 -21238568.385 10 0 60523 56700.00000 0 -9261640.591 -13170545.282 -19767298.060 10 0 60523 57600.00000 0 -9453117.292 -15497288.825 -17911512.589 10 0 60523 58500.00000 0 -9789407.289 -17554418.194 -15707580.234 10 0 60523 59400.00000 0 -10227027.719 -19294840.217 -13198577.831 10 0 60523 60300.00000 0 -10715507.177 -20682490.234 -10433434.381 10 0 60523 61200.00000 0 -11199685.140 -21693624.845 -7465966.191 10 0 60523 62100.00000 0 -11622215.399 -22317609.961 -4353823.272 10 0 60523 63000.00000 0 -11926167.285 -22557174.320 -1157368.031 10 0 60523 63900.00000 0 -12057615.036 -22428120.969 2061491.758 10 0 60523 64800.00000 0 -11968106.813 -21958511.579 5240493.300 10 0 60523 65700.00000 0 -11616910.458 -21187360.006 8318210.054 10 0 60523 66600.00000 0 -10972942.834 -20162891.394 11235221.893 10 0 60523 67500.00000 0 -10016303.011 -18940440.450 13935242.964 10 0 60523 68400.00000 0 -8739346.058 -17580076.840 16366187.192 10 0 60523 69300.00000 0 -7147253.106 -16144056.166 18481152.711 10 0 60523 70200.00000 0 -5258073.850 -14694201.678 20239308.220 10 0 60523 71100.00000 0 -3102238.940 -13289324.176 21606666.054 10 0 60523 72000.00000 0 -721561.063 -11982785.798 22556728.623 10 0 60523 72900.00000 0 1832236.037 -10820307.379 23070997.020 10 0 60523 73800.00000 0 4499402.355 -9838109.226 23139332.584 10 0 60523 74700.00000 0 7214385.235 -9061461.825 22760164.486 10 0 60523 75600.00000 0 9908302.917 -8503706.611 21940538.653 10 0 60523 76500.00000 0 12511568.576 -8165788.064 20696005.696 10 0 60523 77400.00000 0 14956558.642 -8036317.852 19050348.126 10 0 60523 78300.00000 0 17180216.544 -8092169.987 17035149.729 10 0 60523 79200.00000 0 19126484.720 -8299584.114 14689212.836 10 0 60523 80100.00000 0 20748463.705 -8615732.686 12057832.193 10 0 60523 81000.00000 0 22010207.467 -8990687.982 9191937.127 10 0 60523 81900.00000 0 22888078.410 -9369707.415 6147116.766 10 0 60523 82800.00000 0 23371603.240 -9695741.232 2982546.003 10 0 60523 83700.00000 0 23463791.528 -9912056.310 -240167.376 10 0 60523 84600.00000 0 23180901.443 -9964863.729 -3458191.708 10 0 60523 85500.00000 0 22551660.793 -9805836.730 -6608711.895 10 0 60524 0.00000 0 21615975.230 -9394409.629 -9630175.169 10 0 60524 900.00000 0 20423177.320 -8699756.819 -12463517.260 10 0 60524 1800.00000 0 19029892.232 -7702365.325 -15053338.592 10 0 60524 2700.00000 0 17497609.843 -6395130.574 -17349010.497 10 0 60524 3600.00000 0 15890068.748 -4783926.894 -19305683.579 10 0 60524 4500.00000 0 14270564.331 -2887626.568 -20885178.326 10 0 60524 5400.00000 0 12699296.600 -737565.515 -22056739.064 10 0 60524 6300.00000 0 11230871.399 1623522.315 -22797635.874 10 0 60524 7200.00000 0 9912061.506 4143056.690 -23093602.703 10 0 60524 8100.00000 0 8779922.290 6760583.067 -22939103.680 10 0 60524 9000.00000 0 7860340.789 9410081.067 -22337423.522 10 0 60524 9900.00000 0 7167077.933 12022511.629 -21300581.710 10 0 60524 10800.00000 0 6701342.104 14528495.420 -19849073.805 10 0 60524 11700.00000 0 6451909.245 16861010.066 -18011446.784 10 0 60524 12600.00000 0 6395781.404 18957993.523 -15823718.494 10 0 60524 13500.00000 0 6499352.815 20764745.594 -13328654.276 10 0 60524 14400.00000 0 6720031.362 22236028.672 -10574916.358 10 0 60524 15300.00000 0 7008244.518 23337781.894 -7616103.892 10 0 60524 16200.00000 0 7309743.145 24048379.606 -4509703.259 10 0 60524 17100.00000 0 7568104.708 24359384.281 -1315969.615 10 0 60524 18000.00000 0 7727329.772 24275765.314 1903238.348 10 0 60524 18900.00000 0 7734422.436 23815577.265 5085648.071 10 0 60524 19800.00000 0 7541846.700 23009113.368 8169764.813 10 0 60524 20700.00000 0 7109756.458 21897571.490 11096043.302 10 0 60524 21600.00000 0 6407906.624 20531289.389 13808018.129 10 0 60524 22500.00000 0 5417166.319 18967623.251 16253372.745 10 0 60524 23400.00000 0 4130571.579 17268557.628 18384928.298 10 0 60524 24300.00000 0 2553873.849 15498145.247 20161535.216 10 0 60524 25200.00000 0 705560.965 13719881.712 21548852.187 10 0 60524 26100.00000 0 -1383651.354 11994122.388 22519999.160 10 0 60524 27000.00000 0 -3671838.288 10375646.912 23056072.978 10 0 60524 27900.00000 0 -6107355.201 8911470.713 23146516.391 10 0 60524 28800.00000 0 -8630738.642 7638993.157 22789333.361 10 0 60524 29700.00000 0 -11176943.496 6584558.459 21991145.878 10 0 60524 30600.00000 0 -13677826.740 5762489.105 20767089.840 10 0 60524 31500.00000 0 -16064777.606 5174632.642 19140550.150 10 0 60524 32400.00000 0 -18271387.214 4810441.866 17142737.764 10 0 60524 33300.00000 0 -20236048.139 4647586.702 14812114.315 10 0 60524 34200.00000 0 -21904376.132 4653073.957 12193672.823 10 0 60524 35100.00000 0 -23231352.516 4784829.698 9338086.094 10 0 60524 36000.00000 0 -24183096.383 4993679.089 6300737.345 10 0 60524 36900.00000 0 -24738190.339 5225641.041 3140650.660 10 0 60524 37800.00000 0 -24888501.771 5424440.762 -80658.496 10 0 60524 38700.00000 0 -24639462.630 5534133.082 -3300390.062 10 0 60524 39600.00000 0 -24009793.734 5501723.740 -6455698.895 10 0 60524 40500.00000 0 -23030683.483 5279675.079 -9484941.146 10 0 60524 41400.00000 0 -21744454.696 4828186.940 -12328901.050 10 0 60524 42300.00000 0 -20202775.671 4117152.856 -14931971.700 10 0 60524 43200.00000 0 -18464491.693 3127705.494 -17243264.347 10 0 60524 44100.00000 0 -16593169.800 1853283.100 -19217622.339 10 0 60524 45000.00000 0 -14654462.224 300169.604 -20816518.014 10 0 60524 45900.00000 0 -12713401.574 -1512515.969 -22008813.796 10 0 60524 46800.00000 0 -10831743.488 -3553381.104 -22771371.931 10 0 60524 47700.00000 0 -9065469.997 -5779848.799 -23089500.898 10 0 60524 48600.00000 0 -7462559.281 -8139727.619 -22957230.355 10 0 60524 49500.00000 0 -6061115.398 -10573195.940 -22377410.268 10 0 60524 50400.00000 0 -4887935.588 -13015115.960 -21361633.730 10 0 60524 51300.00000 0 -3957573.379 -15397579.472 -19929986.683 10 0 60524 52200.00000 0 -3271934.308 -17652578.000 -18110631.219 10 0 60524 53100.00000 0 -2820418.040 -19714685.161 -15939232.433 10 0 60524 54000.00000 0 -2580597.537 -21523639.292 -13458241.744 10 0 60524 54900.00000 0 -2519403.272 -23026719.157 -10716052.159 10 0 60524 55800.00000 0 -2594759.495 -24180814.821 -7766043.256 10 0 60524 56700.00000 0 -2757600.980 -24954109.055 -4665535.431 10 0 60524 57600.00000 0 -2954183.290 -25327301.339 -1474674.327 10 0 60524 58500.00000 0 -3128587.959 -25294325.815 1744732.625 10 0 60524 59400.00000 0 -3225316.552 -24862535.735 4930405.199 10 0 60524 60300.00000 0 -3191864.531 -24052348.996 8020782.495 10 0 60524 61200.00000 0 -2981167.383 -22896371.450 10956196.089 10 0 60524 62100.00000 0 -2553817.218 -21438035.879 13680002.938 10 0 60524 63000.00000 0 -1879957.959 -19729813.921 16139657.862 10 0 60524 63900.00000 0 -940780.698 -17831075.317 18287706.751 10 0 60524 64800.00000 0 270442.729 -15805682.663 20082683.298 10 0 60524 65700.00000 0 1747831.125 -13719420.178 21489893.893 10 0 60524 66600.00000 0 3472892.969 -11637361.401 22482077.110 10 0 60524 67500.00000 0 5415054.633 -9621282.977 23039926.370 10 0 60524 68400.00000 0 7532697.995 -7727229.737 23152466.387 10 0 60524 69300.00000 0 9774667.098 -6003330.352 22817276.206 10 0 60524 70200.00000 0 12082184.473 -4487952.879 22040553.915 10 0 60524 71100.00000 0 14391100.824 -3208276.128 20837020.497 10 0 60524 72000.00000 0 16634387.709 -2179336.281 19229662.800 10 0 60524 72900.00000 0 18744772.206 -1403589.145 17249318.268 10 0 60524 73800.00000 0 20657405.800 -871007.497 14934106.873 10 0 60524 74700.00000 0 22312457.173 -559711.040 12328718.664 10 0 60524 75600.00000 0 23657520.631 -437104.212 9483568.331 10 0 60524 76500.00000 0 24649738.396 -461475.522 6453831.242 10 0 60524 77400.00000 0 25257546.016 -583992.089 3298378.362 10 0 60524 78300.00000 0 25461965.189 -751005.594 78630.201 10 0 60524 79200.00000 0 25257386.963 -906571.714 -3142647.695 10 0 60524 80100.00000 0 24651809.716 -995075.107 -6302583.214 10 0 60524 81000.00000 0 23666519.610 -963846.646 -9339444.310 10 0 60524 81900.00000 0 22335225.387 -765659.258 -12193867.356 10 0 60524 82800.00000 0 20702683.157 -360993.493 -14810040.787 10 0 60524 83700.00000 0 18822869.233 280026.363 -17136818.515 10 0 60524 84600.00000 0 16756778.799 1176110.580 -19128739.116 10 0 60524 85500.00000 0 14569944.634 2333763.566 -20746929.008 99